[[{"header":{"parameterUnit":"m.s-1","parameterCategory":1,"la1":30.2991,"la2":30.254,"lo1":-89.0895,"lo2":-89.0444,"dy":0.0017,"dx":0.0017,"nx":28,"ny":28,"refTime":"2025-08-14T03:00:00:Z","depth":0,"parameterNumber":2,"parameterNumberName":"U-component_of_WINDS"},"data":[0,0,0,0,0,0,0,0,0,0,0,0,0,0,0,0,0,0,0,0,0,0,0,0,0,0,0,0,0,0,0,0,0,0,0,0,0,0,0,0,0,0,0,0,0,0,0,0,0,0,0,0,0,0,0,0,0,0,1.7433,1.7433,0,1.7422,1.7422,1.7422,1.7345,1.7343,1.7341,1.7339,1.7332,1.7334,1.7335,0,0,0,0,0,0,0,0,0,0,0,0,0,1.7391,1.7392,1.7433,1.7433,1.7433,1.7422,1.7422,1.7422,1.7345,1.7343,1.7341,1.7339,1.7332,1.7333,1.7335,0,0,0,0,0,0,0,0,0,0,0,0,0,1.7398,1.7392,1.7433,1.7393,1.7389,1.7422,1.7422,1.7422,1.7346,1.7343,1.734,1.7337,1.7331,1.7333,1.7336,1.7407,0,0,1.7343,1.7344,0,0,0,0,0,0,0,0,1.7397,1.7399,1.7399,1.7396,1.7392,1.7382,1.7404,1.7417,1.7346,1.7362,1.7339,1.7336,1.7351,1.7352,1.7356,1.7407,1.7407,1.7343,1.7344,1.7346,1.7346,0,0,0,0,0,0,0,1.7397,1.7399,1.7429,1.7399,1.7395,1.7377,1.7375,1.7407,1.7373,1.7361,1.7355,1.7355,1.7349,1.7354,1.7355,1.7406,1.7343,1.7345,1.7347,1.7347,1.7516,1.7519,0,0,0,0,0,0,1.7402,1.7399,1.7429,1.7428,1.7388,1.738,1.7378,1.7388,1.7372,1.7367,1.7357,1.7351,1.7351,1.7353,1.7355,1.7437,1.7345,1.7348,1.7349,1.7513,1.7517,1.752,0,0,0,0,0,0,1.7401,1.7405,1.743,1.7412,1.7414,1.7384,1.7396,1.7389,1.7394,1.737,1.7364,1.7368,1.7349,1.7352,1.7395,1.7436,1.7349,1.7351,1.7509,1.7514,1.7518,1.7603,0,0,0,0,0,0,1.74,1.7405,1.7431,1.7414,1.7415,1.7468,1.7399,1.7391,1.7398,1.739,1.7379,1.7374,1.7347,1.7391,1.7397,1.7437,1.7353,1.7505,1.7511,1.7517,1.7596,1.761,1.7621,0,0,0,0,0,1.7399,1.7456,1.7433,1.7437,1.7447,1.7471,1.7472,1.7439,1.7402,1.7428,1.7413,1.7374,1.7431,1.7396,1.7402,1.7444,1.7503,1.751,1.7516,1.759,1.7607,1.7621,0,0,0,0,0,0,1.7479,1.7453,1.7427,1.7479,1.7478,1.7458,1.7489,1.7457,1.7467,1.7459,1.7419,1.7417,1.7466,1.746,1.7422,1.7513,1.746,1.7469,1.7515,1.753,1.7542,1.7542,1.7355,0,0,0,0,0,1.7503,1.7524,1.75,1.7549,1.7549,1.752,1.7529,1.7504,1.7501,1.75,1.7488,1.7488,1.7505,1.7518,1.7533,1.7596,1.7592,1.7627,1.764,1.765,1.7657,1.769,1.7706,1.7543,1.7542,1.7542,0,0,1.7553,1.7541,1.7556,1.7565,1.756,1.7584,1.752,1.7547,1.7564,1.7505,1.7544,1.7535,1.7533,1.7586,1.7609,1.7582,1.7702,1.7659,1.7668,1.7669,1.7699,1.7715,1.7728,1.7547,1.7546,1.7546,0,0,1.7654,1.7647,1.7687,1.7684,1.7679,1.7659,1.7669,1.7654,1.7646,1.7684,1.764,1.7661,1.7693,1.7692,1.7696,1.78,1.7766,1.7807,1.7872,1.7904,1.7917,1.7928,1.7965,1.7978,1.7814,1.7815,1.7815,0,1.7716,1.7748,1.7712,1.7742,1.7747,1.7695,1.7735,1.7735,1.7735,1.7741,1.7711,1.7749,1.7743,1.7796,1.7821,1.7827,1.7837,1.7807,1.7918,1.7929,1.7939,1.7973,1.7987,1.7819,1.7819,1.7818,1.7818,0,1.7824,1.7848,1.7881,1.7881,1.7891,1.7927,1.7897,1.7911,1.7886,1.787,1.7911,1.7903,1.7915,1.7927,1.7903,1.7976,1.796,1.7925,1.7871,1.796,1.7991,1.8004,1.7826,1.7825,1.7823,1.7822,0,0,1.7973,1.7955,1.7967,1.7967,1.7958,1.7976,1.801,1.8021,1.8034,1.8038,1.8065,1.8094,1.8061,1.8066,1.8042,1.8071,1.8153,1.8032,1.8032,1.8054,1.8234,1.8259,1.8275,1.8131,1.8134,1.8136,1.8234,0,1.8069,1.8124,1.8094,1.8154,1.8175,1.8127,1.8157,1.8156,1.8142,1.816,1.8146,1.8166,1.8122,1.8125,1.8152,1.8138,1.8189,1.8131,1.8157,1.8158,1.8157,1.8291,1.8318,1.841,1.8246,1.8248,1.825,0,1.8188,1.8195,1.8257,1.8245,1.8253,1.828,1.8288,1.8306,1.8304,1.8292,1.8299,1.8268,1.8302,1.8251,1.8297,1.8258,1.8268,1.8263,1.8266,1.8266,1.8208,1.8293,1.8439,1.8453,1.8269,1.8267,1.8266,0,1.8289,1.8315,1.8355,1.8357,1.8344,1.8364,1.836,1.8355,1.8364,1.8373,1.8378,1.8391,1.8398,1.8409,1.8384,1.8349,1.8434,1.838,1.8425,1.8426,1.8444,1.8443,1.8592,1.8453,1.8453,1.8453,1.8452,0,1.8398,1.8438,1.84,1.8425,1.8468,1.8434,1.8478,1.8469,1.8466,1.8489,1.8449,1.8472,1.8438,1.8457,1.8438,1.848,1.8484,1.8476,1.847,1.8478,1.8479,1.8482,1.8474,1.8456,1.8456,1.8455,1.8454,0,1.8517,1.8493,1.8534,1.8519,1.8516,1.8549,1.8537,1.856,1.8545,1.8574,1.8579,1.8556,1.8578,1.8554,1.8574,1.8561,1.8616,1.8602,1.8616,1.8612,1.8658,1.8653,1.8813,1.8832,1.8683,1.8684,1.8686,0,1.8587,1.8616,1.8605,1.8617,1.8615,1.8635,1.8644,1.8613,1.8625,1.8626,1.8649,1.8667,1.8679,1.8716,1.8702,1.8717,1.8702,1.8757,1.8704,1.8712,1.8701,1.8699,1.8702,1.8767,1.8769,1.877,1.8771,0,1.8713,1.8701,1.8715,1.8726,1.8738,1.8745,1.875,1.8762,1.873,1.8746,1.8766,1.8776,1.8797,1.8815,1.8827,1.8824,1.8793,1.8789,1.88,1.8807,1.8814,1.881,1.8644,1.8785,1.8783,1.8782,1.8782,1.8781,1.8808,1.8832,1.8828,1.8846,1.8846,1.8852,1.8872,1.8861,1.8877,1.889,1.8872,1.8898,1.8898,1.891,1.8911,1.8932,1.8908,1.8925,1.8929,1.8933,1.8939,1.8813,1.8934,1.8934,1.8933,1.8933,1.8933,0,1.8931,1.8927,1.8944,1.8951,1.8966,1.8936,1.894,1.8954,1.8977,1.8979,1.8992,1.9017,1.9036,1.9024,1.9039,1.9059,1.9045,1.9064,1.9061,1.9061,1.8959,1.8948,1.9075,1.9074,1.9074,1.9074,1.9074,1.9074,1.8997,1.9035,1.9023,1.9062,1.9058,1.9083,1.9087,1.9093,1.9094,1.9123,1.9138,1.913,1.9127,1.9143,1.9159,1.9155,1.9162,1.9186,1.9177,1.9082,1.9068,1.9055,1.9043,1.9188,1.9188,1.9276,1.9277,1.9277]},{"header":{"parameterUnit":"m.s-1","parameterCategory":1,"la1":30.2991,"la2":30.254,"lo1":-89.0895,"lo2":-89.0444,"dy":0.0017,"dx":0.0017,"nx":28,"ny":28,"refTime":"2025-08-14T03:00:00:Z","depth":0,"parameterNumber":3,"parameterNumberName":"V-component_of_WINDS"},"data":[0,0,0,0,0,0,0,0,0,0,0,0,0,0,0,0,0,0,0,0,0,0,0,0,0,0,0,0,0,0,0,0,0,0,0,0,0,0,0,0,0,0,0,0,0,0,0,0,0,0,0,0,0,0,0,0,0,0,4.8948,4.8949,0,4.9002,4.9002,4.9003,4.8984,4.8983,4.8982,4.8981,4.9029,4.9031,4.9033,0,0,0,0,0,0,0,0,0,0,0,0,0,4.8824,4.8826,4.8948,4.8949,4.895,4.9002,4.9002,4.9003,4.8985,4.8983,4.8982,4.898,4.9028,4.9031,4.9034,0,0,0,0,0,0,0,0,0,0,0,0,0,4.8878,4.8827,4.8948,4.8947,4.8947,4.9001,4.9002,4.9003,4.8985,4.8983,4.8981,4.898,4.9027,4.9031,4.9034,4.909,0,0,4.9045,4.9046,0,0,0,0,0,0,0,0,4.8875,4.8882,4.8946,4.8947,4.8948,4.8985,4.8976,4.9032,4.8985,4.897,4.8981,4.8979,4.9015,4.9019,4.9033,4.9093,4.9095,4.9045,4.9047,4.9049,4.905,0,0,0,0,0,0,0,4.8871,4.888,4.8969,4.8947,4.8948,4.8941,4.8947,4.8986,4.9002,4.8972,4.897,4.8977,4.9015,4.903,4.9034,4.9095,4.9045,4.9048,4.905,4.9052,4.9203,4.9205,0,0,0,0,0,0,4.8868,4.8877,4.8967,4.8971,4.8906,4.8945,4.8952,4.8974,4.9001,4.9004,4.8979,4.8976,4.9025,4.903,4.9036,4.9103,4.9049,4.9052,4.9054,4.9201,4.9203,4.9205,0,0,0,0,0,0,4.8865,4.8876,4.8965,4.8924,4.8934,4.8949,4.8975,4.8976,4.8991,4.9007,4.9009,4.8991,4.9023,4.9031,4.9077,4.9104,4.9054,4.9057,4.9199,4.9202,4.9204,4.9238,0,0,0,0,0,0,4.8862,4.8875,4.8898,4.8924,4.8937,4.9008,4.8977,4.8979,4.8998,4.8995,4.9019,4.9021,4.9023,4.9072,4.9081,4.9108,4.906,4.9196,4.92,4.9203,4.9234,4.9241,4.9248,0,0,0,0,0,4.8857,4.8904,4.89,4.8911,4.8966,4.901,4.9017,4.9019,4.9,4.9023,4.9033,4.902,4.91,4.9077,4.9086,4.9115,4.9194,4.9199,4.9203,4.9231,4.924,4.9247,0,0,0,0,0,0,4.8878,4.8908,4.8903,4.896,4.8983,4.9007,4.9035,4.9028,4.9055,4.9051,4.9051,4.9056,4.9104,4.9114,4.9088,4.9171,4.9144,4.9151,4.9162,4.9171,4.9177,4.9173,4.9062,0,0,0,0,0,4.889,4.8926,4.8948,4.8996,4.9008,4.902,4.9039,4.9039,4.9061,4.907,4.9083,4.9104,4.9134,4.9153,4.9181,4.9236,4.924,4.9261,4.9267,4.9273,4.9278,4.9307,4.9316,4.9219,4.9219,4.9219,0,0,4.8914,4.8934,4.8956,4.9001,4.9019,4.9053,4.9028,4.9065,4.909,4.9075,4.912,4.9131,4.9153,4.9205,4.9228,4.9214,4.9305,4.9278,4.9282,4.9284,4.9312,4.9321,4.9329,4.9222,4.9222,4.9221,0,0,4.8975,4.8995,4.9037,4.9056,4.9084,4.9091,4.9101,4.9126,4.9133,4.9179,4.9169,4.9197,4.9249,4.9265,4.928,4.9348,4.9337,4.9357,4.9391,4.9419,4.9427,4.9434,4.9457,4.9465,4.9362,4.9362,4.9362,0,4.9,4.9054,4.9059,4.9097,4.9117,4.9108,4.9149,4.9166,4.9201,4.9214,4.9199,4.9263,4.9278,4.9332,4.9349,4.9362,4.9372,4.9354,4.9426,4.9433,4.9439,4.9461,4.947,4.9364,4.9364,4.9364,4.9364,0,4.9083,4.912,4.915,4.9187,4.921,4.9249,4.9258,4.928,4.9279,4.9287,4.9333,4.9351,4.9382,4.9395,4.9393,4.9449,4.944,4.9426,4.9399,4.945,4.9471,4.9479,4.9368,4.9367,4.9366,4.9366,0,0,4.9157,4.9198,4.9208,4.9225,4.9255,4.9283,4.9321,4.9354,4.9373,4.9397,4.9428,4.9472,4.9459,4.9476,4.9476,4.9501,4.9552,4.9484,4.9484,4.9495,4.9614,4.9624,4.9634,4.9546,4.9548,4.9549,4.9612,0,4.922,4.9291,4.9297,4.9359,4.9393,4.9385,4.9418,4.9439,4.9448,4.9476,4.9485,4.9516,4.9497,4.9507,4.9532,4.9541,4.9576,4.9537,4.9573,4.9574,4.9567,4.9645,4.9655,4.9713,4.962,4.9621,4.9622,0,4.9302,4.9332,4.9399,4.9425,4.9439,4.9469,4.95,4.9527,4.955,4.9555,4.9575,4.9571,4.9608,4.9581,4.9632,4.9605,4.962,4.9627,4.9629,4.9631,4.9601,4.9648,4.9732,4.974,4.9635,4.9634,4.9633,0,4.9349,4.9405,4.9452,4.9466,4.9498,4.952,4.9533,4.9555,4.9574,4.96,4.9613,4.9642,4.9657,4.9679,4.9682,4.9663,4.9733,4.9706,4.9736,4.9736,4.975,4.9749,4.9837,4.9762,4.9762,4.9762,4.9761,0,4.9418,4.9458,4.9474,4.9503,4.9548,4.9553,4.9596,4.9608,4.9628,4.9657,4.9652,4.9679,4.9682,4.971,4.9712,4.9753,4.9761,4.9764,4.9764,4.9764,4.9763,4.9773,4.9768,4.9764,4.9763,4.9763,4.9763,0,4.9477,4.9489,4.954,4.9567,4.9574,4.9606,4.9627,4.9654,4.9663,4.97,4.9709,4.9721,4.9753,4.976,4.9797,4.9799,4.9847,4.9844,4.984,4.9839,4.9869,4.9865,4.9965,4.9977,4.9895,4.9896,4.9896,0,4.952,4.9551,4.9582,4.9603,4.9618,4.9651,4.9671,4.9677,4.9698,4.9728,4.975,4.9782,4.9808,4.9859,4.987,4.9899,4.9895,4.9928,4.9899,4.9898,4.9894,4.9892,4.9895,4.9933,4.9934,4.9935,4.9935,0,4.9594,4.9598,4.963,4.9663,4.9688,4.9714,4.9738,4.9755,4.9764,4.9787,4.9821,4.9842,4.9881,4.9912,4.994,4.9952,4.9944,4.9945,4.9953,4.9952,4.9949,4.995,4.9854,4.9942,4.9941,4.9941,4.994,4.994,4.9645,4.9673,4.9699,4.9734,4.9753,4.9776,4.9803,4.9816,4.9845,4.9879,4.988,4.9917,4.9938,4.9976,4.999,5.0017,5.0006,5.0019,5.0021,5.0024,5.0027,4.9946,5.0022,5.0022,5.0022,5.0022,5.0022,0,4.9718,4.9735,4.9767,4.9803,4.983,4.9823,4.985,4.9872,4.9905,4.9927,4.9954,4.9992,5.0022,5.0037,5.0066,5.0085,5.0082,5.0093,5.0091,5.0093,5.0035,5.0024,5.0094,5.0094,5.0094,5.0094,5.0094,5.0094,4.9759,4.9806,4.9814,4.9869,4.9885,4.9923,4.9939,4.9959,4.9977,5.0021,5.0047,5.0057,5.0075,5.0106,5.0133,5.0136,5.0147,5.0158,5.016,5.0105,5.0097,5.009,5.008,5.0161,5.0161,5.0216,5.0216,5.0216]}]]